DW3793 Weather Reports


Display with metric or nautical units.
time (UTC)temp
F
wind
direction
speed
MPH
gust
MPH
rain 1hr
in
rain 24hr
in
rain mn
in
humidity
%
barometer
mb
20260504043023 56 19 2.0 5.0 0.00 0.00 0.00 64 1011.1
20260504041522 57 326 1.0 5.0 0.00 0.00 0.00 64 1011.0
20260504040021 58 295 1.0 3.0 0.00 0.00 0.00 62 1011.0
20260504034522 59 321 2.0 5.0 0.00 0.00 0.00 61 1011.0
20260504033053 61 305 1.0 4.0 0.00 0.00 0.00 57 1010.9
20260504031552 65 255 0.0 3.0 0.00 0.00 0.00 50 1010.9
20260504030047 67 124 1.0 9.0 0.00 0.00 0.00 45 1010.8
20260504024601 69 135 3.0 12.0 0.00 0.00 0.00 43 1010.7
20260504023048 70 147 5.0 13.0 0.00 0.00 0.00 41 1010.6
20260504021546 71 118 5.0 13.0 0.00 0.00 0.00 39 1010.6
20260504020044 71 129 6.0 16.0 0.00 0.00 0.00 38 1010.6
20260504014541 72 106 7.0 15.0 0.00 0.00 0.00 37 1010.6
20260504013041 73 135 6.0 17.0 0.00 0.00 0.00 35 1010.7
20260504011540 74 122 7.0 17.0 0.00 0.00 0.00 32 1010.8
20260504010036 75 140 9.0 20.0 0.00 0.00 0.00 31 1010.9
20260504004543 75 132 8.0 17.0 0.00 0.00 0.00 30 1010.9
20260504003040 76 145 9.0 19.0 0.00 0.00 0.00 30 1010.9
20260504001541 77 133 11.0 20.0 0.00 0.00 0.00 27 1011.0
20260504000052 77 116 5.0 16.0 0.00 0.00 0.00 30 1011.0
20260503234531 78 91 7.0 17.0 0.00 0.00 0.00 29 1010.9
20260503233029 78 143 4.0 12.0 0.00 0.00 0.00 32 1011.1
20260503231529 78 105 5.0 16.0 0.00 0.00 0.00 30 1011.2
20260503230024 78 129 6.0 12.0 0.00 0.00 0.00 32 1011.3
20260503224523 78 84 6.0 15.0 0.00 0.00 0.00 33 1011.5
20260503223021 78 87 5.0 14.0 0.00 0.00 0.00 34 1011.7
20260503221518 78 94 3.0 15.0 0.00 0.00 0.00 30 1011.9
20260503220014 77 80 8.0 13.0 0.00 0.00 0.00 28 1012.1
20260503214513 77 71 5.0 11.0 0.00 0.00 0.00 34 1012.3
20260503213010 77 84 3.0 10.0 0.00 0.00 0.00 30 1012.5
20260503211506 77 126 3.0 9.0 0.00 0.00 0.00 35 1012.7
20260503204557 74 57 4.0 10.0 0.00 0.00 0.00 39 1013.1
20260503203107 73 148 3.0 7.0 0.00 0.00 0.00 45 1013.3
20260503201554 72 115 0.0 5.0 0.00 0.00 0.00 46 1013.5
20260503200050 71 130 2.0 7.0 0.00 0.00 0.00 46 1013.7
20260503194517 71 121 2.0 5.0 0.00 0.00 0.00 45 1014.1
20260503193017 70 122 2.0 5.0 0.00 0.00 0.00 45 1014.2
20260503191507 69 65 1.0 4.0 0.00 0.00 0.00 47 1014.5
20260503190008 68 140 3.0 6.0 0.00 0.00 0.00 47 1014.6
20260503184504 69 88 0.0 3.0 0.00 0.00 0.00 48 1014.8
20260503183101 65 57 4.0 5.0 0.00 0.00 0.00 51 1015.0
20260503181604 65 129 0.0 2.0 0.00 0.00 0.00 53 1015.1
20260503180054 64 129 1.0 6.0 0.00 0.00 0.00 53 1015.3
20260503174554 63 61 1.0 6.0 0.00 0.00 0.00 55 1015.4
20260503173058 63 76 4.0 6.0 0.00 0.00 0.00 53 1015.5
20260503171546 62 227 0.0 3.0 0.00 0.00 0.00 53 1015.5
20260503054541 57 296 3.0 7.0 0.00 0.00 0.00 53 1015.0
20260503053042 57 296 2.0 5.0 0.00 0.00 0.00 54 1015.0
20260503051538 58 319 2.0 6.0 0.00 0.00 0.00 53 1015.0
20260503050037 58 301 0.0 3.0 0.00 0.00 0.00 53 1015.0
20260503044536 61 313 1.0 3.0 0.00 0.00 0.00 48 1014.9